Harlingen, TX

10:23 AM CST on December 08, 2016 (GMT -0600)
Valley International

Weather History for KHRL - November, 2013

Change the Weather History Date:

Friday, November 29, 2013

  Actual Average Record
Temperature  
Mean Temperature 61 °F 64 °F  
Max Temperature 76 °F 75 °F 91 °F (2016)
Min Temperature 46 °F 53 °F 31 °F (1942)
Degree Days  
Heating Degree Days 4 4  
Month to date heating degree days 131 50  
Since 1 July heating degree days 131 53  
Cooling Degree Days 0 3  
Month to date cooling degree days 116 155  
Year to date cooling degree days 4013 3931  
Growing Degree Days 10 (Base 50)    
Moisture  
Dew Point 52 °F    
Average Humidity 75    
Maximum Humidity 100    
Minimum Humidity 49    
Precipitation  
Precipitation 0.00 in 0.03 in 0.37 in (1952)
Month to date precipitation 7.36 1.46  
Year to date precipitation 29.17 23.88  
Sea Level Pressure  
Sea Level Pressure 30.35 in    
Wind  
Wind Speed 5 mph (North)    
Max Wind Speed 12 mph    
Max Gust Speed 14 mph    
Visibility 10 miles    
Events      
T = Trace of Precipitation, MM = Missing Value Source: NWS Daily Summary

Daily Weather History Graph

Daily Weather History Graph

Search for Another Location

Airport or City:

Trip Planner

Search our weather history database for the weather conditions in past years. The results will help you decide how hot, cold, wet, or windy it might be!

Date:

Astronomy

Nov. 29, 2013 Rise Set
Actual Time 6:59 AM CST 5:38 PM CST
Civil Twilight 6:34 AM CST 6:03 PM CST
Nautical Twilight 6:06 AM CST 6:31 PM CST
Astronomical Twilight 5:38 AM CST 6:59 PM CST
Moon 3:25 AM CST (11/29) 3:07 PM CST (11/29)
Length of Visible Light 11h 28m
Length of Day
10h 38m
Waning Crescent, 14% of the Moon is Illuminated
Nov 29
Waning Crescent
Dec 2
New
Dec 9
First Quarter
Dec 17
Full
Dec 25
Last Quarter

Hourly Weather History & Observations

Time (CST) Temp. Windchill Dew Point Humidity Pressure Visibility Wind Dir Wind Speed Gust Speed Precip Events Conditions
12:52 AM 48.0 °F - 46.0 °F 93% 30.37 in 10.0 mi NW 4.6 mph - N/A   Clear
1:52 AM 46.9 °F - 45.0 °F 93% 30.36 in 10.0 mi NW 4.6 mph - N/A   Clear
2:52 AM 46.9 °F - 45.0 °F 93% 30.35 in 10.0 mi NW 4.6 mph - N/A   Clear
3:52 AM 46.0 °F 43.9 °F 45.0 °F 96% 30.35 in 10.0 mi NW 4.6 mph - N/A   Clear
4:52 AM 46.0 °F 43.9 °F 44.1 °F 93% 30.36 in 10.0 mi NW 4.6 mph - N/A   Clear
5:52 AM 46.0 °F 43.9 °F 45.0 °F 96% 30.36 in 10.0 mi NW 4.6 mph - N/A   Clear
6:52 AM 46.0 °F 43.9 °F 45.0 °F 96% 30.38 in 9.0 mi NW 4.6 mph - N/A   Partly Cloudy
7:52 AM 48.9 °F - 48.0 °F 97% 30.40 in 7.0 mi NW 4.6 mph - N/A   Clear
8:52 AM 55.0 °F - 52.0 °F 89% 30.40 in 10.0 mi NNW 5.8 mph - N/A   Scattered Clouds
9:52 AM 61.0 °F - 54.0 °F 78% 30.41 in 10.0 mi NNW 3.5 mph - N/A   Clear
10:52 AM 66.9 °F - 55.9 °F 68% 30.40 in 10.0 mi NNW 4.6 mph - N/A   Clear
11:52 AM 71.1 °F - 57.0 °F 61% 30.38 in 10.0 mi North 4.6 mph - N/A   Clear
12:52 PM 73.0 °F - 55.9 °F 55% 30.35 in 10.0 mi NNE 3.5 mph - N/A   Clear
1:52 PM 73.0 °F - 53.1 °F 49% 30.32 in 10.0 mi East 9.2 mph - N/A   Mostly Cloudy
2:52 PM 72.0 °F - 54.0 °F 53% 30.31 in 10.0 mi East 10.4 mph - N/A   Overcast
3:52 PM 71.1 °F - 54.0 °F 55% 30.31 in 10.0 mi East 10.4 mph - N/A   Overcast
4:52 PM 69.1 °F - 55.0 °F 61% 30.31 in 10.0 mi ENE 5.8 mph - N/A   Overcast
5:52 PM 66.0 °F - 55.9 °F 70% 30.31 in 10.0 mi ENE 3.5 mph - N/A   Overcast
6:52 PM 64.0 °F - 57.9 °F 80% 30.32 in 10.0 mi ENE 4.6 mph - N/A   Overcast
7:52 PM 64.0 °F - 57.9 °F 80% 30.34 in 10.0 mi Calm Calm - N/A   Overcast
8:52 PM 63.0 °F - 57.9 °F 84% 30.35 in 10.0 mi NE 5.8 mph - N/A   Overcast
9:52 PM 63.0 °F - 57.9 °F 84% 30.34 in 10.0 mi North 5.8 mph - N/A   Overcast
10:52 PM 61.0 °F - 57.9 °F 90% 30.34 in 10.0 mi WNW 3.5 mph - N/A   Mostly Cloudy
11:52 PM 59.0 °F - 57.0 °F 93% 30.33 in 10.0 mi Calm Calm - N/A   Mostly Cloudy